Regional Weather Roundup
Issued by NWS

Home | Current Version | Previous Version | Graphics & Text | Print | Product List | Glossary Off
Versions: 1 2 3 4 5 6 7 8 9 10 11 12 13 14 15 16 17 18 19 20 21 22 23 24 25 26 27 28 29 30 31 32 33 34 35 36 37 38 39 40 41 42 43 44 45 46 47 48 49 50

000
ASUS43 KMKX 262359
RWRWI

WISCONSIN REGIONAL WEATHER ROUNDUP
NATIONAL WEATHER SERVICE MILWAUKEE/SULLIVAN WI
700 PM CDT THU APR 26 2018

NOTE: "FAIR" INDICATES FEW OR NO CLOUDS BELOW 12,000 FEET WITH NO
SIGNIFICANT WEATHER AND/OR OBSTRUCTIONS TO VISIBILITY.

WIZ001-002-006>008-014>016-023>028-270100-
NORTHWEST WISCONSIN

CITY           SKY/WX    TMP DP  RH WIND       PRES   REMARKS
SUPERIOR ARPT  PTSUNNY   55  30  38 E5        29.89R
ASHLAND        FAIR      50  34  54 E5        29.90S
6HR MIN TEMP:  48; 6HR MAX TEMP:  59;

HAYWARD        FAIR      54  32  43 N7        29.88R
6HR MIN TEMP:  54; 6HR MAX TEMP:  62;

SIREN          FAIR      58  26  29 N12       29.88R
CUMBERLAND     PTSUNNY   55  30  38 N10G20    29.86R
RICE LAKE      FAIR      57  31  38 N12G17    29.87R
6HR MIN TEMP:  57; 6HR MAX TEMP:  63;

CHETEK         FAIR      55  33  44 N6        29.85R
LADYSMITH      FAIR      53  37  53 N13G20    29.87R
6HR MIN TEMP:  53; 6HR MAX TEMP:  65;

EAU CLAIRE     NOT AVBL
MENOMONIE      FAIR      61  29  29 NW14      29.84R
6HR MIN TEMP:  61; 6HR MAX TEMP:  67;

NEW RICHMOND   FAIR      59  30  32 NW16G25   29.87R
OSCEOLA        FAIR      60  31  34 NW17G24   29.91R
$$

WIZ003>005-009-010-017-018-270100-
NORTH CENTRAL WISCONSIN

CITY           SKY/WX    TMP DP  RH WIND       PRES   REMARKS
MANITOWISH WTR MOCLDY    44  35  69 N7        29.87R
ARBOR VITAE    MOCLDY    43  35  72 N12       29.86R
WOODRUFF       MOCLDY    43  35  72 N12       29.86R
RHINELANDER    CLOUDY    45  34  65 N13G22    29.85R
6HR MIN TEMP:  45; 6HR MAX TEMP:  64; 6HR PCP: TRACE;

EAGLE RIVER    CLOUDY    42  32  67 N13G21    29.84R
6HR MIN TEMP:  42; 6HR MAX TEMP:  62;

LAND O LAKES   MOCLDY    42  34  73 N10G16    29.88R
6HR MIN TEMP:  42; 6HR MAX TEMP:  60;

PHILLIPS       FAIR      47  34  58 N9G23     29.87R
6HR MIN TEMP:  47; 6HR MAX TEMP:  63;

TOMAHAWK       FAIR      47  32  57 NW10G17   29.84R
MEDFORD        MOCLDY    51  35  53 N16G25    29.80R
MERRILL        CLOUDY    55  34  45 N22G29    29.79R
$$

WIZ029-030-035-036-043>047-270100-
CENTRAL WISCONSIN

CITY           SKY/WX    TMP DP  RH WIND       PRES   REMARKS
WAUSAU         LGT RAIN  57  35  43 N16G28    29.75R
6HR MIN TEMP:  57; 6HR MAX TEMP:  66; 6HR PCP: TRACE;

MOSINEE        MOCLDY    61  30  31 W6        29.76F
MARSHFIELD     CLOUDY    59  39  47 NW12      29.76R
6HR MIN TEMP:  59; 6HR MAX TEMP:  67;

STEVENS POINT  MOCLDY    62  29  28 W7        29.76F
WAUPACA        FAIR      67  24  19 W7        29.76F
6HR MIN TEMP:  64; 6HR MAX TEMP:  71;

WAUTOMA        CLOUDY    66  27  23 W14       29.77F
6HR MIN TEMP:  63; 6HR MAX TEMP:  69;

WISC RAPIDS    MOCLDY    65  28  24 W9        29.76F
6HR MIN TEMP:  65; 6HR MAX TEMP:  71;

CAMP DOUGLAS   NOT AVBL
$$

WIZ011>013-019>022-031-037>040-048>050-270100-
NORTHEAST WISCONSIN

CITY           SKY/WX    TMP DP  RH WIND       PRES   REMARKS
ANTIGO         CLOUDY    56  35  44 NW10      29.76S
SHAWANO        MOCLDY    66  31  27 CALM      29.75F
6HR MIN TEMP:  62; 6HR MAX TEMP:  68;

OCONTO         FAIR      65  31  27 W12       29.75S
STURGEON BAY   FAIR      51  37  58 S10       29.77F
6HR MIN TEMP:  50; 6HR MAX TEMP:  63;

GREEN BAY      FAIR      63  38  39 S6        29.76F
6HR MIN TEMP:  59; 6HR MAX TEMP:  66;

MANITOWOC      FAIR      49  34  56 S10       29.79F
6HR MIN TEMP:  49; 6HR MAX TEMP:  62;

APPLETON       MOCLDY    63  23  22 W6        29.75F
CLINTONVILLE   CLOUDY    65  26  23 NW3       29.76S
6HR MIN TEMP:  61; 6HR MAX TEMP:  67;

OSHKOSH        FAIR      65  33  30 SW7       29.76F
6HR MIN TEMP:  61; 6HR MAX TEMP:  66;

$$

WIZ032>034-041-042-053>061-270100-
SOUTHWEST WISCONSIN

CITY           SKY/WX    TMP DP  RH WIND       PRES   REMARKS
LA CROSSE      FAIR      65  39  38 NW16      29.79R
6HR MIN TEMP:  64; 6HR MAX TEMP:  72;

SPARTA         MOCLDY    65  40  39 W8        29.79S
VIROQUA        FAIR      63  41  45 W10G17    29.80F
BOSCOBEL       MOCLDY    69  34  27 W9        29.79F
6HR MIN TEMP:  66; 6HR MAX TEMP:  73;

PRAIRIE DU CHI FAIR      68  33  27 W13G20    29.79F
PLATTEVILLE    FAIR      69  29  22 W13       29.81S
$$

WIZ056-057-062-063-064-067-068-270100-
SOUTH CENTRAL WISCONSIN

CITY           SKY/WX    TMP DP  RH WIND       PRES   REMARKS
REEDSBURG      MOCLDY    66  32  28 SW7       29.77F
6HR MIN TEMP:  61; 6HR MAX TEMP:  69;

BARABOO/DELLS  MOCLDY    67  24  20 W13       29.78F
LONE ROCK      NOT AVBL
MINERAL POINT  FAIR      68  27  21 W12       29.80S
MADISON        MOCLDY    65  31  28 CALM      29.78F
6HR MIN TEMP:  61; 6HR MAX TEMP:  67;

MIDDLETON      FAIR      68  26  20 W8        29.80S
WATERTOWN      FAIR      65  29  26 W9        29.79F
MONROE         FAIR      66  27  22 SW12      29.80F
JANESVILLE     MOCLDY    66  25  20 W10       29.81F
$$

WIZ051-052-058>065-066-070>072-270100-
SOUTHEAST WISCONSIN

CITY           SKY/WX    TMP DP  RH WIND       PRES   REMARKS
MILWAUKEE      MOCLDY    58  30  34 S8        29.82F
6HR MIN TEMP:  58; 6HR MAX TEMP:  66;

WAUKESHA       CLEAR     63  27  25 SW10      29.81F
MILWAUKEE/TIMM CLEAR     64  23  20 W8        29.81F
RACINE         FAIR      53  25  33 S14       29.83F
6HR MIN TEMP:  52; 6HR MAX TEMP:  55;

BURLINGTON     FAIR      65  30  27 SW8       29.81F
KENOSHA        FAIR      58  29  33 S10       29.82F
6HR MIN TEMP:  57; 6HR MAX TEMP:  65;

FOND DU LAC    FAIR      64  31  28 SW7       29.77F
6HR MIN TEMP:  60; 6HR MAX TEMP:  66; 6HR PCP: TRACE;

SHEBOYGAN      FAIR      54  35  48 S10       29.79F
6HR MIN TEMP:  54; 6HR MAX TEMP:  66;

WEST BEND      FAIR      63  27  25 SW8       29.80S
JUNEAU         FAIR      63  30  29 SW9       29.80F
$$

LSZ147-162-270100-
LAKE SUPERIOR

STATION/POSITION TIME  TEMP    WIND        PRES    WAVE
                       AIR SEA DIR/SP/G            HT/PER
                 (UTC) (F)     (DEG/KT/KT) (MB)    (FT/S)
DEVILS ISLAND    2300   47     130/  5/  6 1012.8R
SAXON HARBOR     2330   42     320/  4/  4 1012.5R
$$

LMZ867-665-643>646-270100-
LAKE MICHIGAN

STATION/POSITION TIME  TEMP    WIND        PRES    WAVE
                       AIR SEA DIR/SP/G            HT/PER
                 (UTC) (F)     (DEG/KT/KT) (MB)    (FT/S)
NORTHPORT PIER   2340   45                 1007.8F
KEWAUNEE LAKESHO 2330   43     170/ 15/ 17 1008.2F
SHEBOYGAN LAKESH 2300   43     170/ 19/ 20 1009.6F
PORT WASHINGTON  2330   47     180/  7/ 11 1010.5F
MILWAUKEE LAKESH 2330   45     150/ 16/ 17   N/A
KENOSHA   LAKESH 2300   50                 1010.8
$$

TC  - TEMPERATURE IN CELSIUS
VSB - VISIBILITY IN STATUTE MILES
WCI - WIND CHILL INDEX
HX  - HEAT INDEX





USA.gov is the U.S. government's official web portal to all federal, state and local government web resources and services.